Vertical_Velocity
-1 -1 -0 -1 -2 -1 1 2 1 -1 -1 -1 -0 -0 -0 -1 -1 -1 -0 -0 0 0 0 0 0 0 0 -0 -0 -0 -0 -1 -1 -1 -1 -1 -1 -2 -1 -1 -1 -0 -0 -0 -0 -0 -0 -0 0 0 -0 -0 -0 -0 -0 -0 -0 -0 -0 -0 0 0 0 1 0 -0 -1 -1 -1 -0 0 -0 -0 -0 -1 -1 -1 -1 -1 -0 -0 -0 -0 -0 -0 -1 -1 -1 -1 -1 -1 -1 -0 1 0 -2 -2 -2 -1 -1 0 1 -1
-1 -0 0 -0 -1 -1 -0 -0 -0 -1 -1 -1 -1 -1 -1 -1 -1 -1 -0 0 0 0 0 0 0 0 -0 -0 -0 -0 -0 -1 -1 -2 -1 -1 -1 -2 -2 -1 -1 -1 -1 -1 -1 -1 -0 -0 -0 0 0 0 -0 -0 -0 -0 -0 0 0 0 0 0 0 0 -0 -1 -1 -1 -1 -0 -0 0 -0 -0 -0 -1 -1 -0 -0 -0 -0 -0 -0 -0 0 -0 -1 -1 -1 -1 -1 -1 -1 -1 0 -1 -2 -2 -1 -1 -0 -0 -0
0 0 0 0 -0 -0 -0 -1 -1 -1 -1 -1 -1 -1 -1 -1 -1 -1 0 0 0 0 0 0 0 -0 -0 -0 -0 -0 -0 -1 -1 -1 -1 -0 -1 -1 -1 -1 -1 -1 -1 -1 -1 -1 -0 -0 -0 0 0 0 0 0 0 0 0 0 0 0 0 0 1 0 -0 -1 -1 -1 -0 -0 -1 -0 -0 -0 -0 -1 -1 -1 -0 -0 -0 -0 -0 0 0 -0 -0 -0 -0 -0 -1 -0 -1 -1 -1 -1 -1 -1 -1 -1 -1 -0 -0
-0 -0 -1 -0 -0 -0 -0 -0 -0 -0 -0 -1 -1 -1 -2 -1 -1 -0 0 0 -0 -0 -0 -0 -0 -0 -0 -0 -0 -0 -0 -0 -1 -1 -1 -0 -0 -0 -1 -1 -0 -0 -0 -0 -0 -0 0 0 1 1 1 1 1 1 1 1 1 1 0 0 0 0 0 0 -0 -1 -0 -0 -1 -1 -1 0 0 -0 -1 -1 -0 -0 -0 -0 -0 -0 -0 0 -0 -0 0 -0 -0 0 0 1 0 -1 -1 -1 -1 -1 -1 -1 -1 -1 -1
-1 -1 -1 -0 -0 -0 -0 -0 -0 -0 -0 -1 -1 -1 -1 -1 -1 -0 -0 -0 -0 -0 -0 -0 -0 -0 -0 -0 0 0 0 -0 -1 -1 -1 -0 0 0 -0 0 0 0 0 0 0 1 1 1 1 2 1 1 1 1 1 1 1 0 0 0 1 1 -0 -0 -0 -0 -0 -0 -1 -1 -1 2 1 -0 -1 -1 -1 -1 -1 -1 -1 -1 -0 -0 -0 -1 -1 -1 -1 -1 -1 -1 -1 -1 -1 -1 -1 -1 -1 -1 -1 -1 -1
-2 -2 -1 -0 -1 -1 -0 -1 -1 -1 -1 -1 -1 -1 -1 -1 -0 -1 -1 -1 -0 -0 -0 -0 -0 -0 -0 -0 -0 0 0 0 -0 -1 -1 -0 0 1 0 0 1 1 1 1 1 1 1 1 2 2 2 2 2 1 1 1 0 0 0 1 1 1 0 -0 -0 -0 -0 -0 -0 0 2 2 1 -1 -1 -1 -1 -1 -1 -1 -1 -1 -1 -1 -1 -1 -1 -1 -1 -1 -2 -2 -2 -2 -2 -1 -1 -1 -1 -1 -1 -1 -1
-2 -3 -1 -1 -1 -1 -1 -1 -1 -1 -1 -1 -1 -1 -1 -0 -0 -0 -1 -0 0 0 -0 -0 -0 -0 -0 -0 -0 0 0 0 0 -0 -1 -0 0 1 1 1 1 1 1 1 1 1 1 1 1 1 2 2 1 1 1 0 0 0 1 1 1 1 0 -0 -0 0 0 0 0 2 5 2 -0 -1 -1 -1 -1 -1 -0 -1 -1 -1 -1 -1 -1 -1 -1 -1 -1 -1 -1 -1 -1 -1 -1 -1 -1 -1 -1 -1 -1 -1 -0
-2 -3 -2 -1 -1 -1 -1 -1 -1 -0 -0 -1 -1 -1 -0 -0 -0 -0 0 0 0 -0 -1 -1 -1 -1 -0 -0 -0 0 0 0 0 0 -0 -0 0 1 1 1 1 0 0 0 0 0 0 0 1 1 1 1 1 1 0 1 1 1 1 1 1 0 -1 0 0 0 0 0 1 2 2 0 -1 -1 -1 -0 -0 -0 -0 -0 -0 -0 -0 -1 -1 -1 -1 -1 -1 -1 -1 -1 -1 -1 -1 -1 -1 -1 -1 -1 -1 -0 -0
-0 0 -2 -1 -1 -1 -1 -1 -0 -0 -0 -1 -1 -1 -1 -0 -0 0 0 0 -1 -1 -2 -1 -1 -1 -0 -0 -0 0 0 0 0 0 -0 -0 0 0 1 0 0 0 0 0 0 0 0 0 0 0 0 1 1 1 1 1 1 1 1 1 1 0 -0 0 0 0 0 -0 1 2 -1 -1 -1 -1 -1 -0 -0 0 0 -0 -0 -0 -0 -0 -0 -1 -1 -1 -1 -1 -1 -1 -1 -1 -1 -1 -1 -1 -1 -1 -1 -1 -0
0 2 -2 -1 -1 -1 -1 -0 -0 -0 -0 -0 -1 -1 -0 -1 -0 -0 -0 -1 -1 -1 -1 -1 -0 -0 -0 -0 -0 0 0 0 0 0 -0 -0 -0 0 1 0 -0 -0 -0 -0 -0 -0 -0 0 0 0 0 0 0 0 0 1 1 1 0 0 0 -0 -0 0 0 0 0 0 1 2 1 -0 -1 -0 -0 -0 0 0 0 0 0 0 0 0 -0 -0 -0 -0 -0 -0 -0 -0 -0 -0 -0 -0 -0 -0 -1 -1 -1 -1 -1
-1 -0 -2 -1 -1 -1 -0 -0 -0 -0 -1 -1 -1 -1 -1 -1 -1 -1 -1 -1 -1 -1 -0 -0 -0 -1 -1 -1 -0 0 0 1 1 0 0 -1 -1 -0 0 0 -0 -0 0 0 0 0 -0 -0 -0 -0 -0 0 0 0 0 1 1 1 0 0 -0 -0 -1 -0 0 0 0 -0 1 2 2 -0 -1 -1 -0 0 0 0 0 0 0 0 0 0 0 0 0 -0 -0 -0 -0 -0 -0 -0 0 -0 -0 -0 -0 -0 -1 -1 -1
-1 -1 -1 -1 -0 -0 0 -0 -0 -1 -1 -1 -1 -1 -1 -1 -1 -1 -1 -0 -0 0 0 -1 -1 -1 -1 -0 0 0 1 1 1 1 0 -1 -1 -1 0 0 0 0 0 0 0 0 0 0 -0 -0 -0 -0 -0 -0 -0 0 1 1 1 0 -0 -0 -0 -0 -0 -0 -1 -1 1 1 1 -1 -1 -1 -0 -0 0 0 0 0 0 0 0 0 0 0 0 0 0 0 0 0 0 0 0 0 -0 -0 -0 -0 -1 -1 -1
-1 -1 -1 -0 -0 0 -0 -1 -1 -1 -1 -2 -2 -1 -1 -1 -1 -0 0 0 0 -0 -1 -1 -1 -0 -0 0 0 1 1 1 1 0 -0 -1 -1 -1 -0 0 0 0 0 0 0 0 0 -0 -0 -0 -0 -0 -0 -0 -0 -0 0 0 0 0 -0 -0 -1 -1 -0 0 -0 -0 0 0 0 -1 -1 -0 -0 -0 0 0 0 0 0 0 0 0 0 0 0 0 0 0 0 0 0 -0 -0 -0 -0 -0 -0 -0 -1 -0 -1
-1 -1 -0 -0 -0 -0 -1 -1 -1 -2 -2 -1 -1 -1 -1 -1 -1 -0 0 0 -0 -1 -1 -0 -0 -0 0 0 1 1 1 1 0 -0 -1 -1 -1 -1 -0 0 0 0 0 0 0 0 0 -0 -0 -0 -0 -0 -0 -1 -1 -0 -0 -0 0 0 -0 -0 -1 -1 0 2 1 0 2 3 -1 -1 -1 -0 -0 -0 -0 0 0 0 0 0 0 0 0 0 0 0 0 0 0 0 -0 -0 -0 -0 -0 -1 -0 -0 -0 -0 -1
-1 -0 -0 -0 -0 -0 -1 -1 -1 -2 -2 -1 -1 -1 -1 -1 -1 -0 0 -0 -0 -0 0 0 0 0 0 1 1 1 1 1 0 -0 -0 -0 -0 0 1 1 1 0 0 0 0 -0 -0 -0 -1 -1 -1 -1 -1 -1 -1 -0 -0 -0 0 0 -0 -1 -1 -1 -0 1 3 0 1 1 -2 -1 -1 -1 -0 -0 -0 0 0 0 0 0 0 0 0 0 0 0 0 0 0 0 -0 -0 -0 -0 -0 -0 -0 -0 -0 -0 -0
-1 -0 -0 -0 -0 -1 -1 -1 -1 -1 -1 -0 -0 -0 -0 -1 -1 -0 0 -1 -0 0 1 1 0 0 0 1 1 1 1 1 1 1 1 1 1 1 1 1 1 0 0 -0 -0 -1 -1 -1 -1 -1 -1 -1 -1 -1 -1 -0 -0 -0 -0 0 -0 -1 -1 -1 -2 -0 4 1 1 1 -2 -1 -1 -1 -0 -0 -0 0 0 0 0 0 0 0 0 0 1 1 0 0 0 0 0 -0 -0 -0 -0 -0 -0 -0 -0 -0 -0
-0 -0 0 0 -0 -0 -1 -0 -0 0 -0 0 0 0 0 0 -0 -1 -0 -1 0 1 1 1 1 1 1 1 1 1 1 1 1 1 2 2 2 1 1 1 0 0 -0 -0 -1 -1 -1 -1 -1 -1 -1 -1 -1 -1 -1 -0 -0 -0 -0 0 0 -0 -1 -1 -1 -1 1 0 -0 -1 -1 -1 -1 -1 -1 -0 -0 -0 0 0 0 0 0 0 0 1 1 1 1 0 0 0 0 -0 -0 -0 -0 -0 -0 -0 -0 -0 -0
-0 -0 0 0 0 0 -0 0 0 0 0 0 0 0 1 1 0 -0 -1 -0 0 1 1 1 1 1 1 1 1 1 1 1 1 1 1 1 1 1 1 0 0 0 -0 -0 -0 -0 -0 -0 -0 -0 -1 -1 -1 -1 -1 -1 -1 -0 -0 0 0 -0 -1 -1 -1 -1 -1 -2 -2 -1 -1 -1 -1 -1 -1 -1 -0 -0 -0 0 0 0 0 0 1 1 1 0 0 0 0 0 0 0 0 0 0 -0 -0 -0 -0 -0 -0
0 0 1 1 0 1 1 1 1 1 0 0 0 1 1 1 1 0 -0 0 1 1 1 1 1 1 1 1 1 1 1 1 1 1 1 1 1 1 1 1 1 0 0 0 0 0 0 0 0 0 0 -0 -1 -1 -1 -1 -1 -1 -0 0 0 -0 -1 -1 -1 -1 -1 -1 -1 -1 -1 -1 -1 -1 -1 -1 -1 -0 -0 -0 -0 0 0 0 0 0 0 0 0 0 0 0 0 0 0 0 -0 -0 -0 -0 -0 -0 -0
0 1 1 1 1 1 1 1 1 1 1 0 1 1 1 1 0 0 0 1 1 1 0 0 1 1 1 1 1 1 1 1 1 1 1 1 1 1 1 1 1 1 0 0 0 0 0 0 0 0 0 -0 -1 -1 -1 -1 -1 -1 -0 -0 0 0 -0 -0 -1 -1 -1 -1 -1 -1 -1 -1 -1 -1 -1 -1 -1 -0 -0 -0 -0 -0 -0 0 0 0 0 0 0 0 0 0 0 0 0 0 -0 -0 -0 -0 -0 -0 -0
0 1 1 0 0 1 1 1 1 1 1 0 0 0 0 0 0 0 0 0 0 0 -0 0 1 1 1 0 0 0 0 0 0 0 0 0 0 1 1 1 0 0 0 0 0 0 0 0 -0 -0 0 -0 -1 -1 -1 -1 -1 -1 -1 -0 -0 -0 -0 -0 -0 -0 -0 -0 -0 -0 -0 -0 -0 -0 -0 -1 -1 -0 -0 -0 -0 -0 -0 -0 0 0 0 0 0 0 0 0 1 0 0 0 0 -0 -0 -0 -0 -0 -0
0 0 0 -0 -0 0 0 0 0 0 0 0 0 0 0 0 0 0 0 -0 -0 0 0 1 1 0 0 0 0 0 0 0 -0 -0 0 0 0 0 0 0 0 0 0 0 0 0 0 -0 -0 -0 -0 -0 -0 -1 -1 -1 -1 -1 -1 -0 -0 -0 -0 -0 -0 -0 -0 -0 -1 -0 -0 0 -0 -0 -0 -0 -0 -0 -0 -0 -0 -0 -0 -0 -0 0 0 0 0 0 0 0 0 0 0 0 0 -0 -0 -0 -1 -1 -0
-0 0 1 -0 -0 0 0 0 0 0 0 0 1 1 1 1 1 0 0 0 0 0 1 1 0 0 0 0 0 0 -0 -0 -0 -0 0 0 0 0 0 0 0 0 0 0 0 0 0 0 -0 -0 -0 -0 -0 -0 -0 -0 -0 -0 -0 -0 -0 -0 -0 -0 -0 -0 -1 -1 -1 -0 -0 0 0 -0 -0 -0 -0 -0 -0 -0 -0 -0 -0 -0 0 -0 -0 -0 0 0 0 0 0 0 0 0 0 -0 -0 -0 -1 -1 -1
-0 0 1 1 0 0 1 1 1 0 0 1 1 1 1 1 1 1 1 1 0 0 0 0 0 0 0 -0 0 0 -0 -0 0 0 0 0 0 0 0 0 0 0 0 0 0 0 0 0 0 -0 -0 -0 -0 -0 -0 -0 -0 -0 -0 -0 -0 -0 -0 -0 -0 -1 -1 -1 -1 -0 -1 -0 0 0 -0 -0 -1 -1 -0 -0 -0 -0 -0 0 -0 -0 -0 0 0 0 0 0 0 0 0 0 0 0 -0 -0 -1 -1 -1
-0 0 2 1 1 1 1 1 1 1 1 1 1 1 1 1 1 1 1 1 1 0 0 0 0 0 -0 -0 0 0 0 0 0 0 0 0 0 -0 -0 0 0 0 0 0 0 0 0 0 0 -0 -0 -0 -0 -0 -0 -0 -0 -0 -0 -0 -0 -0 -0 -0 -0 -0 -1 -1 -1 -1 -1 -0 0 0 0 -0 -0 -0 -0 -0 -0 -0 -0 0 -0 -0 -0 0 0 0 0 0 0 0 0 0 0 0 0 -0 -0 -1 -1
0 1 2 1 1 1 1 0 0 0 0 1 1 0 0 0 0 0 0 0 0 0 0 0 0 0 0 0 0 0 0 0 0 0 0 -0 -0 -0 -0 -0 -0 0 0 0 0 0 0 0 0 -0 -0 -0 -0 -0 -0 -0 -0 -0 -0 -0 -0 -0 -0 -0 -0 0 -0 -0 -1 -1 -1 -0 0 -0 -0 -0 -0 -0 -0 -0 -0 -0 -0 0 0 0 0 0 0 -0 -0 0 0 0 0 0 0 0 0 -0 -0 -0 -1
0 1 2 1 1 0 0 0 0 0 0 0 0 0 0 0 0 0 0 0 0 0 0 0 0 0 0 0 0 0 0 0 0 0 -0 -0 -0 -0 -0 -0 0 0 0 0 0 0 0 0 -0 -0 -0 -0 -0 -0 -0 -0 -0 -0 -0 -0 -0 -0 -0 -0 0 0 0 0 -1 -1 -2 -0 0 -0 -0 -0 -0 -0 -0 -0 -0 -0 -0 -0 -0 -0 -0 -0 -0 -0 -0 -0 0 0 0 0 0 0 -0 -0 -0 -1 -1
1 1 1 1 0 0 0 -0 -0 0 0 0 0 0 0 0 0 0 0 0 0 0 1 1 1 1 1 1 0 0 0 0 0 -0 -0 -0 -0 -0 -0 -0 -0 0 0 0 0 0 0 -0 -0 -0 -0 -0 -0 -0 -0 -0 -0 -0 -0 -0 -0 -0 -0 0 0 0 0 0 0 -0 -1 -1 -0 0 -0 -0 -0 -1 -1 -1 -0 -0 -0 -0 -0 -0 -1 -1 -0 -0 0 0 0 0 0 0 0 0 0 -0 -0 -1 -1
1 1 1 0 0 -0 -0 -0 -0 -0 0 0 0 0 0 0 0 0 0 0 1 1 1 1 1 1 1 1 1 0 0 0 0 0 0 -0 -0 -0 -0 -0 -0 -0 -0 -0 -0 -0 -0 -0 -0 -0 -0 -0 -0 -0 -0 -0 -0 -0 -0 -0 -0 -0 -0 0 0 0 0 0 0 0 0 -1 -1 -0 0 0 -0 -1 -1 -1 -0 -0 -0 -0 -0 -0 -1 -1 -1 -0 0 0 0 0 0 0 0 -0 -0 -0 -0 -1 -1
0 0 0 -0 -0 -0 -0 -0 -0 0 0 0 0 0 0 0 0 0 0 1 1 1 1 1 1 1 1 1 0 0 0 0 0 0 0 0 0 -0 -0 -0 -1 -1 -1 -0 -0 -0 -0 -0 -0 -0 -1 -0 -0 -0 -0 -0 -0 -0 -0 -0 -0 -0 -0 0 0 0 0 0 0 0 0 -0 -1 -0 0 0 -0 -0 -1 -0 -0 -0 -0 -0 -0 -0 -1 -1 -1 -1 -0 0 0 0 0 0 -0 -0 -0 -0 -1 -1 -1
0 0 -0 -1 -1 -1 -1 -0 -0 0 0 0 0 1 1 1 0 0 0 1 1 1 1 1 0 0 0 0 -0 -0 -0 -0 -0 -0 -0 -0 -0 0 0 -0 -0 -1 -1 -1 -0 -0 -0 -0 -0 -0 -0 -0 -0 -0 -0 -0 -0 -0 -0 -0 -0 -0 -0 0 0 0 0 0 0 0 0 -0 -1 -1 0 -0 -0 -0 -0 -0 -0 -0 0 0 0 0 -0 -0 -0 -0 -0 -0 0 0 0 0 0 0 -0 -0 -0 -0 -1
0 0 -0 -1 -1 -1 -1 -0 -0 0 0 0 1 1 1 1 0 0 0 1 1 0 0 -0 -0 -0 -0 -1 -1 -1 -1 -1 -1 -1 -1 -1 -1 -1 -0 -0 -0 -0 -1 -1 -1 -0 -0 0 0 0 -0 -0 -0 -0 -0 -0 -0 -0 -0 -0 -0 -0 -0 0 0 0 0 0 0 0 0 -0 -1 -2 -2 -0 -0 -0 -0 -0 -0 0 0 0 0 0 0 0 0 0 0 -0 -0 0 0 0 0 0 0 0 0 0 -0
0 0 -0 -1 -1 -1 -1 -1 -0 0 0 1 1 1 1 1 0 0 1 1 0 0 0 -0 -0 -1 -1 -1 -1 -1 -1 -1 -1 -1 -1 -1 -1 -1 -1 -1 -1 -1 -1 -0 -0 -0 0 0 0 0 0 0 0 0 0 0 0 -0 -0 -0 -0 -0 0 0 0 1 1 1 1 0 0 0 0 -0 -1 -1 -1 -0 -0 0 0 0 0 0 1 1 1 1 1 0 1 0 0 0 0 -0 -0 -0 -0 -0 -0 0 0
0 -0 -0 -1 -1 -1 -1 -1 -0 0 0 1 1 1 0 0 0 0 1 1 1 0 0 -0 -1 -1 -1 -1 -1 -1 -1 -1 -1 -1 -1 -1 -1 -1 -1 -1 -1 -1 -0 -0 -0 0 0 0 0 0 0 0 0 0 0 0 0 0 0 0 0 0 0 0 0 1 1 1 1 1 1 0 0 0 -0 -1 -1 -0 -0 0 0 0 1 1 1 1 1 1 1 1 1 1 1 1 0 0 -0 -0 -0 -0 -0 -0 -0
0 0 -0 -0 -1 -1 -1 -0 0 0 0 0 0 0 0 0 0 1 1 1 1 0 -0 -1 -1 -1 -1 -1 -1 -1 -0 -0 -0 -0 -0 -0 -0 -0 -1 -1 -0 -0 -0 0 0 0 0 0 0 0 0 0 0 0 0 0 0 0 0 0 0 0 0 1 1 1 1 1 1 1 1 0 0 0 -0 -1 -1 -1 -0 -0 0 0 1 1 1 1 1 1 1 1 1 1 1 1 1 1 1 0 0 -0 -0 -0 -0
1 1 0 -0 -1 -1 -0 -0 -0 0 0 0 0 0 0 0 1 1 1 1 1 -0 -1 -1 -2 -2 -1 -1 -1 -0 -0 -0 -0 -0 0 0 -0 -1 -1 -1 -0 0 0 0 0 0 0 0 0 0 0 0 0 0 0 0 0 0 0 0 1 1 1 1 1 1 1 1 1 1 1 1 0 0 0 -0 0 0 0 -0 -0 -0 0 1 1 1 1 2 2 2 2 1 1 1 1 1 1 1 1 0 0 0 0
1 1 0 0 -0 -0 -0 -0 -0 -0 -0 -0 -0 0 0 0 1 1 1 1 0 -1 -1 -2 -2 -1 -1 -1 -0 -0 -0 -0 -0 -0 -0 -0 -0 -1 -1 -0 0 0 0 0 0 0 0 0 0 0 0 0 0 0 0 0 0 0 0 1 1 1 1 1 1 1 0 1 1 1 1 1 1 0 0 0 0 0 1 1 0 0 -0 0 0 0 1 1 1 1 1 1 1 1 1 1 1 1 1 1 1 1 0
1 1 0 0 0 0 0 -0 -0 0 0 -0 -0 -0 0 1 1 1 1 1 0 -1 -2 -2 -2 -1 -1 -1 -0 -0 0 0 -0 -0 -0 -0 -1 -1 -1 -0 -0 -0 -0 -0 -0 -0 -0 -0 -0 -0 0 0 0 0 0 0 0 0 0 0 1 1 1 1 1 0 0 1 1 1 1 1 1 1 1 1 1 1 1 1 1 1 1 1 1 1 1 1 1 1 1 1 1 1 2 2 1 1 1 1 1 1 1
0 0 0 0 0 0 0 0 0 0 0 0 0 0 0 1 1 1 1 1 -0 -1 -2 -2 -2 -1 -1 -0 -0 0 0 0 0 0 0 -0 -0 -0 -0 -0 -0 -0 -0 -0 -0 -0 -0 -0 -0 -0 0 0 0 0 0 0 0 0 0 0 0 0 1 1 1 0 0 1 1 1 1 1 1 1 1 1 1 1 1 1 1 1 1 2 2 2 2 2 2 2 2 2 2 2 2 2 2 2 2 1 1 1 1
0 0 0 0 0 0 0 0 0 0 0 0 0 0 1 1 1 1 1 0 -1 -1 -2 -2 -2 -1 -1 -0 0 0 0 0 0 0 0 0 0 0 0 -0 -0 -0 -0 -0 -0 -0 -0 -0 -0 -0 0 0 0 0 0 0 0 0 0 0 0 0 1 1 1 1 1 1 1 1 1 1 1 1 1 1 1 1 1 1 1 2 2 2 2 2 2 2 2 2 2 2 2 2 2 2 2 2 2 2 1 1 1
0 0 0 0 1 1 0 0 0 0 0 0 0 0 1 1 1 1 1 0 -1 -1 -2 -2 -2 -1 -1 -0 0 0 0 0 0 0 0 0 0 0 0 0 0 -0 -0 -0 -0 -0 -1 -0 -0 -0 0 0 0 0 0 1 1 1 1 0 0 1 1 1 1 1 1 1 1 1 1 1 1 1 1 1 1 1 1 2 2 2 2 2 2 2 2 2 2 2 2 2 2 2 2 2 2 2 2 1 1 1 0
0 1 0 1 1 1 0 0 0 0 0 0 0 0 1 1 1 1 0 -0 -1 -1 -2 -2 -2 -1 -1 -0 0 0 0 0 0 0 0 1 1 0 0 0 0 0 -0 -0 -0 -1 -1 -1 -1 -0 -0 0 0 0 0 0 1 1 1 1 1 1 1 1 1 1 1 1 1 1 1 1 1 1 1 1 1 2 2 2 2 2 2 2 2 2 2 2 2 2 2 1 1 1 1 1 1 0 0 -0 -0 -0 -1
1 1 1 1 1 0 0 1 1 0 0 0 0 0 1 1 1 1 0 -0 -1 -1 -2 -2 -2 -1 -1 -0 0 0 0 0 0 0 1 1 1 1 0 0 0 0 0 -0 -0 -1 -1 -1 -1 -1 -0 -0 0 0 0 0 0 0 1 1 1 1 1 1 1 1 1 1 1 1 2 2 2 2 1 2 2 2 2 2 2 2 2 2 2 2 2 1 1 0 0 -0 -1 -1 -1 -1 -1 -1 -1 -1 -1 -1 -2
1 1 2 1 1 1 1 1 1 1 0 0 0 0 0 0 0 0 0 -0 -1 -1 -2 -2 -2 -1 -1 -1 0 1 1 1 1 1 1 1 1 1 0 0 0 0 0 0 -0 -1 -1 -1 -1 -1 -1 -0 -0 0 0 0 0 0 1 1 1 1 1 1 1 1 1 1 1 1 2 2 2 2 2 2 2 2 2 2 2 2 1 1 1 0 -0 -1 -2 -2 -2 -3 -3 -3 -3 -3 -3 -2 -2 -2 -2 -2 -2
1 1 2 1 1 1 1 1 1 1 1 0 0 0 0 0 0 0 0 -0 -1 -1 -1 -1 -1 -1 -1 0 1 1 1 1 1 1 0 0 0 0 0 0 0 0 0 0 0 -0 -1 -1 -1 -1 -0 -0 -0 -0 0 0 0 1 1 1 1 1 2 1 1 1 1 1 2 2 2 3 3 3 2 2 2 2 1 1 0 -0 -1 -1 -2 -3 -3 -4 -4 -4 -4 -4 -3 -3 -3 -2 -2 -2 -2 -2 -1 -1 -1
0 1 1 1 1 0 1 1 1 1 1 1 1 0 0 0 0 0 0 -0 -1 -1 -1 -1 -1 -1 -0 1 1 2 1 1 1 1 0 0 0 -0 -0 0 0 0 -0 0 0 -0 -1 -0 -0 -0 -0 -0 -0 -0 -0 0 0 1 1 1 1 1 2 1 1 1 2 2 2 3 3 3 3 3 2 1 1 0 -0 -1 -2 -3 -4 -4 -4 -4 -4 -4 -4 -3 -3 -2 -2 -1 -1 -1 -1 -1 -1 -1 -1 -1 -0
0 1 1 0 0 1 1 1 1 0 0 1 1 0 0 0 0 0 0 -0 -1 -1 -1 -1 -1 -0 1 1 2 1 1 1 1 0 0 0 0 -0 -1 -0 0 0 0 -0 -0 -0 -0 0 0 0 -0 -0 -0 -0 -0 0 1 1 1 2 2 2 2 1 1 2 2 2 3 3 3 2 2 1 0 -1 -2 -3 -3 -4 -4 -4 -4 -3 -3 -2 -2 -1 -1 -1 -0 0 1 1 1 1 0 0 0 1 1 1 0
1 1 1 1 1 1 1 1 0 0 -0 0 0 0 1 1 1 1 1 0 0 -0 -0 -0 -0 0 1 2 1 1 1 1 0 0 -0 -0 0 0 0 -0 0 1 1 -0 -1 -0 0 0 0 0 0 0 0 0 0 1 1 1 1 2 2 2 1 2 2 2 2 2 2 2 1 0 -1 -2 -3 -3 -4 -4 -4 -3 -2 -1 -0 0 1 1 1 1 1 1 2 2 2 2 1 1 1 1 1 2 2 2 2
1 1 1 1 1 0 0 -0 -0 -1 -1 -0 1 1 2 2 2 1 1 1 0 0 0 -0 -0 0 1 1 1 1 1 1 0 0 0 -1 -1 -1 0 1 1 2 2 0 -0 0 1 1 1 1 1 1 1 1 1 1 1 1 2 2 2 2 2 2 2 2 2 2 1 0 -1 -2 -3 -4 -4 -3 -3 -2 -1 -1 0 1 2 2 2 2 2 2 2 2 2 1 1 1 1 1 1 1 1 2 2 2 2
0 0 0 0 -0 -0 -1 -1 -1 -1 -1 0 1 2 3 2 1 1 0 0 -0 -0 -0 -1 -0 0 1 1 0 0 1 1 1 0 -0 -1 -2 -3 -3 -2 0 2 3 1 1 1 1 1 1 1 1 1 1 1 1 1 1 1 2 2 2 3 3 3 2 2 2 1 -1 -2 -3 -3 -3 -3 -2 -1 -1 0 0 1 1 1 1 1 1 1 1 1 1 1 1 0 0 0 1 1 1 1 1 1 2 2 2
0 0 -0 -0 -1 -1 -1 -2 -2 -2 -1 0 1 1 1 1 0 -0 -1 -0 -0 -0 -0 -1 -0 0 1 0 0 0 1 1 1 0 -0 -1 -1 -1 -2 -4 -3 -0 4 3 1 1 1 2 1 1 1 1 1 1 1 1 2 2 2 3 3 3 3 3 2 1 0 -1 -2 -2 -2 -2 -1 -1 -0 0 0 0 0 0 -0 -0 -0 -0 -0 -0 -0 -0 -0 0 0 0 0 0 1 1 1 1 1 1 1 2 2
0 0 0 -0 -1 -1 -1 -1 -2 -2 -1 -1 -0 -0 -0 -1 -1 -1 -1 -1 -0 -0 -0 -0 0 1 1 0 0 1 1 1 1 1 1 -0 -1 -2 -2 -4 -6 -6 -5 0 2 2 2 3 2 1 1 1 1 1 1 2 2 2 3 3 3 3 2 2 1 -0 -1 -1 -1 -1 -1 -1 -0 -0 -0 -1 -1 -1 -1 -1 -1 -1 -1 -1 -1 -1 -1 -1 -0 -0 0 1 1 1 1 1 1 1 1 1 2 2 2
0 0 0 0 -0 -0 -1 -1 -2 -2 -2 -2 -2 -1 -1 -1 -1 -1 -1 -1 -0 -0 -0 0 0 0 0 1 1 1 1 1 1 1 1 0 -1 -2 -3 -3 -3 -3 -4 -5 -2 1 1 1 1 1 1 2 2 2 2 2 2 2 2 3 2 2 2 0 -0 -1 -1 0 0 0 -0 -1 -1 -1 -1 -1 -1 -1 -2 -1 -1 -1 -0 -0 -0 -0 -0 -0 -0 0 0 0 1 1 1 1 1 1 1 1 1 2 2
0 0 0 0 0 0 -1 -1 -2 -2 -2 -2 -2 -1 -1 -1 -1 -1 -1 -1 -1 -0 -0 0 0 -0 -0 0 1 1 2 1 1 1 0 0 0 -1 -2 -2 -1 -1 -1 -2 -3 -4 -4 -2 -0 2 1 2 2 2 2 2 2 2 2 2 2 2 1 -0 -1 -0 0 0 0 -0 -1 -1 -1 -1 -1 -1 -1 -1 -1 -1 -1 -0 -0 -0 -0 -0 -0 -0 -0 0 0 0 0 1 1 1 1 1 1 1 1 1 1
0 1 1 1 0 -0 -1 -1 -1 -1 -1 -1 -1 -1 -1 -1 -1 -1 -0 -0 0 0 0 0 0 -0 -0 -0 0 1 1 1 1 1 0 0 1 1 1 -0 -2 -3 -3 -2 -1 -2 -4 -3 -1 2 2 2 2 2 1 1 1 1 2 2 2 1 -0 -0 0 0 0 -0 -1 -1 -1 -1 -1 -1 -1 -1 -1 -1 -1 -1 -0 -0 -0 -0 -1 -1 -1 -1 -0 -0 -0 0 0 0 0 0 0 0 0 0 0 0 0
1 1 1 1 0 0 0 -0 -0 -0 -0 -1 -1 -1 -1 -1 -0 0 0 1 1 0 0 0 0 0 0 0 0 0 1 1 1 1 1 1 1 0 1 1 0 -1 0 1 0 -1 -1 -2 -3 -2 1 1 1 1 0 -0 -0 0 1 2 1 -0 -1 -0 0 0 -0 -1 -1 -1 -1 -1 -1 -1 -1 -1 -1 -1 -0 -0 -0 -1 -1 -1 -1 -1 -1 -1 -1 -1 -1 -0 -0 0 0 0 0 -0 -0 -0 -0 -0 0
2 1 1 1 1 0 0 -0 -1 -1 -0 -0 -1 -1 -0 0 0 0 0 0 0 0 1 1 0 0 1 1 0 -1 -0 0 1 1 1 1 1 1 1 2 2 1 -0 -0 -1 -1 -2 -2 -3 -3 -3 -0 1 1 1 0 0 0 1 1 0 -1 -2 -1 -0 -0 -0 -1 -1 -1 -1 -1 -1 -1 -2 -1 -1 -1 -1 -1 -1 -1 -2 -2 -2 -2 -1 -1 -1 -1 -1 -1 -1 -1 -1 -0 -0 -1 -1 -0 -0 -0 -0
1 1 1 1 1 1 0 -0 -1 -1 -1 -0 -0 0 0 -0 -0 -0 -0 -0 0 1 1 1 0 0 1 1 0 -1 -1 0 1 1 1 1 1 1 1 2 1 1 1 0 0 -0 -1 -3 -2 -2 -6 -5 -1 3 3 2 1 0 0 1 -0 -2 -2 -1 -0 -0 -0 -1 -1 -1 -1 -1 -1 -1 -1 -1 -1 -1 -1 -1 -1 -1 -2 -2 -2 -1 -1 -1 -1 -1 -1 -1 -1 -1 -1 -1 -1 -1 -1 -1 -1 -0 -0
1 1 1 1 1 1 1 0 -0 -0 -1 -0 0 0 -0 -1 -1 -0 0 1 1 1 1 0 0 1 1 1 0 -1 -1 0 1 2 1 1 1 2 2 2 2 2 2 1 1 1 2 1 -1 -3 -4 -7 -7 -4 3 2 1 1 1 2 -0 -3 -3 -1 -0 -1 -1 -1 -1 -1 -1 -1 -1 -1 -1 -1 -1 -2 -1 -2 -2 -2 -2 -2 -1 -1 -1 -0 0 0 0 -0 -0 -1 -1 -1 -1 -1 -1 -1 -1 -1 -0
1 1 1 1 1 1 1 1 0 0 0 0 -0 -1 -1 -0 0 0 1 1 1 1 1 0 0 1 1 0 -1 -1 -1 1 2 2 1 1 1 2 2 2 2 2 2 2 1 1 2 4 3 2 -0 -2 -7 -10 -8 -1 1 2 2 3 -0 -3 -4 -1 -1 -1 -1 -1 -1 -1 -1 -1 -2 -2 -1 -1 -1 -2 -2 -2 -2 -2 -1 -1 -1 -1 -0 0 1 1 0 -0 -1 -1 -2 -2 -2 -2 -2 -1 -1 -1 -0
2 2 2 1 1 1 1 1 0 0 0 -0 -1 -1 -1 0 0 0 -0 0 1 1 0 0 0 0 0 -1 -1 -1 1 1 2 2 2 2 2 1 2 2 2 2 2 1 -0 -0 -0 1 2 3 2 -0 -3 -7 -11 -7 -3 0 2 5 3 -1 -5 -3 -2 -2 -2 -2 -2 -2 -1 -1 -2 -2 -2 -2 -2 -2 -2 -2 -2 -1 -1 -1 -1 -1 -1 -0 -0 -0 -1 -2 -2 -3 -3 -3 -2 -2 -2 -1 -1 -0 -0
Height
1518 1519 1519 1520 1520 1521 1521 1522 1522 1522 1522 1523 1523 1524 1524 1524 1525 1525 1525 1526 1526 1527 1527 1527 1528 1528 1528 1529 1529 1529 1530 1530 1530 1530 1531 1531 1531 1531 1532 1532 1532 1533 1533 1533 1533 1533 1533 1533 1533 1533 1533 1533 1533 1533 1533 1533 1533 1533 1533 1533 1533 1533 1534 1534 1534 1533 1533 1532 1532 1532 1532 1532 1532 1532 1532 1532 1532 1532 1532 1532 1532 1532 1532 1532 1532 1532 1532 1532 1532 1532 1532 1532 1532 1531 1531 1531 1531 1531 1531 1531 1531 1530 1530
1518 1519 1519 1520 1520 1521 1521 1521 1522 1522 1523 1523 1524 1524 1524 1524 1525 1525 1526 1526 1526 1527 1527 1528 1528 1529 1529 1529 1530 1530 1530 1530 1530 1530 1531 1531 1531 1532 1532 1532 1533 1533 1533 1533 1533 1534 1534 1534 1534 1534 1534 1534 1534 1534 1534 1534 1534 1534 1534 1534 1534 1534 1534 1534 1534 1533 1533 1533 1532 1532 1532 1532 1532 1532 1532 1532 1532 1532 1532 1532 1532 1532 1532 1532 1532 1532 1532 1532 1532 1532 1532 1532 1532 1532 1531 1531 1531 1531 1531 1531 1530 1530 1530
1518 1519 1519 1520 1520 1521 1521 1521 1522 1522 1523 1523 1524 1524 1524 1524 1525 1525 1526 1526 1527 1527 1528 1528 1528 1529 1529 1530 1530 1530 1530 1530 1531 1531 1531 1531 1532 1532 1532 1532 1533 1533 1533 1533 1534 1534 1534 1534 1534 1534 1534 1534 1534 1534 1534 1534 1534 1534 1534 1534 1534 1534 1534 1534 1534 1533 1533 1533 1533 1532 1532 1532 1532 1532 1532 1532 1532 1532 1532 1532 1532 1532 1532 1532 1532 1532 1532 1532 1532 1532 1532 1532 1532 1531 1531 1531 1531 1531 1530 1530 1530 1530 1529
1518 1519 1519 1520 1520 1521 1521 1522 1522 1523 1523 1523 1524 1524 1524 1525 1525 1526 1526 1526 1527 1527 1528 1528 1529 1529 1530 1530 1530 1531 1531 1531 1531 1531 1531 1532 1532 1532 1532 1533 1533 1533 1533 1534 1534 1534 1534 1535 1535 1535 1535 1535 1535 1535 1534 1534 1534 1534 1534 1534 1534 1534 1534 1534 1534 1534 1533 1533 1533 1533 1533 1533 1533 1533 1532 1532 1532 1532 1532 1532 1532 1532 1532 1532 1532 1532 1532 1532 1532 1532 1532 1532 1532 1531 1531 1531 1531 1530 1530 1530 1530 1530 1529
1518 1518 1519 1520 1520 1521 1521 1522 1522 1523 1523 1523 1524 1524 1524 1525 1525 1526 1526 1527 1527 1528 1528 1529 1529 1530 1530 1530 1531 1531 1531 1531 1531 1531 1531 1532 1532 1533 1533 1533 1533 1534 1534 1534 1534 1535 1535 1535 1535 1535 1535 1535 1535 1535 1535 1535 1535 1535 1535 1535 1534 1534 1534 1534 1534 1534 1534 1534 1533 1533 1533 1533 1533 1533 1533 1532 1532 1532 1532 1532 1532 1532 1532 1532 1532 1532 1532 1532 1532 1532 1532 1532 1532 1531 1531 1531 1531 1530 1530 1530 1529 1529 1529
1518 1518 1519 1519 1520 1521 1521 1522 1522 1523 1523 1523 1523 1524 1524 1525 1526 1526 1526 1527 1527 1528 1528 1529 1529 1530 1530 1531 1531 1531 1531 1531 1531 1531 1532 1532 1532 1533 1533 1533 1534 1534 1534 1534 1535 1535 1535 1535 1535 1535 1535 1535 1535 1535 1535 1535 1535 1535 1535 1535 1535 1535 1535 1535 1534 1534 1534 1534 1534 1534 1535 1534 1534 1533 1533 1532 1532 1532 1532 1532 1532 1532 1532 1531 1531 1531 1531 1531 1531 1531 1531 1531 1531 1531 1531 1531 1531 1530 1530 1530 1529 1529 1529
1518 1518 1519 1519 1520 1521 1521 1522 1522 1522 1523 1523 1524 1524 1525 1525 1526 1526 1526 1527 1528 1528 1529 1529 1530 1530 1530 1531 1531 1531 1532 1532 1532 1532 1532 1532 1533 1533 1533 1534 1534 1534 1534 1535 1535 1535 1535 1535 1535 1536 1536 1536 1536 1536 1535 1535 1535 1535 1535 1535 1535 1535 1535 1535 1534 1534 1535 1534 1535 1535 1535 1534 1534 1533 1533 1532 1532 1532 1532 1532 1532 1532 1532 1531 1531 1531 1531 1531 1531 1531 1531 1531 1531 1531 1531 1531 1530 1530 1530 1530 1530 1529 1529
1517 1518 1519 1519 1520 1521 1521 1521 1522 1522 1523 1523 1524 1524 1525 1525 1526 1526 1527 1527 1528 1528 1529 1529 1530 1530 1531 1531 1531 1532 1532 1532 1532 1532 1532 1533 1533 1533 1534 1534 1534 1534 1535 1535 1535 1535 1535 1535 1536 1536 1536 1536 1536 1536 1536 1536 1536 1536 1535 1535 1535 1535 1535 1535 1535 1535 1535 1535 1535 1535 1535 1534 1534 1533 1533 1533 1532 1532 1532 1532 1532 1532 1532 1532 1531 1531 1531 1531 1531 1531 1531 1531 1531 1531 1531 1531 1530 1530 1530 1530 1530 1530 1529
1517 1518 1519 1519 1520 1521 1521 1521 1522 1523 1523 1524 1524 1525 1525 1526 1526 1526 1527 1528 1528 1528 1529 1529 1530 1530 1531 1531 1531 1532 1532 1532 1532 1533 1533 1533 1533 1534 1534 1534 1534 1535 1535 1535 1535 1535 1536 1536 1536 1536 1536 1536 1536 1536 1536 1536 1536 1536 1536 1536 1535 1535 1535 1535 1535 1535 1535 1535 1536 1536 1535 1534 1534 1533 1533 1533 1533 1532 1532 1532 1532 1532 1532 1532 1532 1532 1531 1531 1531 1531 1531 1531 1531 1531 1531 1531 1531 1530 1530 1530 1530 1530 1530
1518 1518 1518 1519 1520 1521 1521 1521 1522 1523 1523 1524 1524 1525 1525 1526 1526 1527 1527 1528 1528 1528 1529 1529 1530 1530 1531 1531 1531 1532 1532 1533 1533 1533 1533 1533 1533 1534 1534 1534 1535 1535 1535 1535 1535 1536 1536 1536 1536 1536 1536 1536 1536 1536 1536 1536 1536 1536 1536 1536 1536 1536 1536 1535 1535 1535 1535 1535 1536 1536 1535 1535 1534 1534 1533 1533 1533 1533 1533 1532 1532 1532 1532 1532 1532 1532 1532 1532 1532 1531 1531 1531 1531 1531 1531 1531 1531 1531 1530 1530 1530 1530 1530
1517 1518 1518 1519 1520 1521 1521 1522 1522 1523 1523 1524 1524 1525 1525 1526 1526 1527 1527 1527 1528 1528 1529 1529 1530 1530 1531 1531 1532 1532 1532 1533 1533 1533 1533 1533 1534 1534 1534 1535 1535 1535 1535 1535 1536 1536 1536 1536 1536 1536 1536 1536 1536 1536 1536 1536 1536 1536 1536 1536 1536 1536 1536 1536 1536 1536 1536 1536 1536 1536 1536 1535 1534 1534 1534 1533 1533 1533 1533 1533 1533 1532 1532 1532 1532 1532 1532 1532 1532 1532 1532 1531 1531 1531 1531 1531 1531 1531 1531 1530 1530 1530 1530
1517 1518 1518 1519 1520 1521 1521 1522 1522 1523 1524 1524 1525 1525 1526 1526 1526 1527 1527 1528 1528 1529 1529 1529 1530 1530 1531 1531 1532 1532 1533 1533 1533 1533 1533 1533 1534 1534 1534 1535 1535 1535 1535 1536 1536 1536 1536 1536 1536 1536 1536 1536 1536 1536 1536 1536 1536 1536 1536 1536 1536 1536 1536 1536 1536 1536 1536 1536 1536 1537 1536 1535 1534 1534 1534 1534 1533 1533 1533 1533 1533 1533 1533 1533 1532 1532 1532 1532 1532 1532 1532 1532 1531 1531 1531 1531 1531 1531 1531 1530 1530 1530 1530
1517 1517 1518 1519 1520 1521 1521 1522 1522 1523 1523 1524 1525 1525 1526 1526 1526 1527 1527 1528 1528 1529 1529 1529 1530 1530 1531 1531 1532 1532 1533 1533 1533 1533 1533 1533 1534 1534 1534 1535 1535 1535 1536 1536 1536 1536 1536 1536 1536 1536 1536 1536 1536 1536 1536 1536 1536 1536 1536 1536 1536 1536 1536 1536 1536 1537 1537 1536 1537 1537 1536 1535 1535 1534 1534 1534 1534 1534 1534 1533 1533 1533 1533 1533 1533 1533 1532 1532 1532 1532 1532 1532 1532 1531 1531 1531 1531 1531 1531 1530 1530 1530 1530
1517 1517 1518 1519 1520 1521 1521 1522 1522 1523 1524 1524 1525 1525 1526 1526 1526 1527 1527 1528 1528 1528 1529 1529 1530 1530 1531 1531 1532 1532 1533 1533 1533 1533 1533 1533 1534 1534 1535 1535 1535 1536 1536 1536 1536 1536 1536 1536 1536 1536 1536 1536 1536 1536 1536 1536 1536 1536 1536 1536 1536 1536 1536 1536 1537 1537 1537 1537 1537 1537 1536 1535 1535 1534 1534 1534 1534 1534 1534 1534 1534 1534 1533 1533 1533 1533 1533 1533 1532 1532 1532 1532 1532 1532 1531 1531 1531 1531 1531 1530 1530 1530 1530
1517 1517 1518 1519 1520 1521 1521 1522 1522 1523 1524 1524 1524 1525 1526 1526 1526 1527 1527 1528 1528 1528 1529 1529 1530 1530 1531 1531 1532 1532 1532 1533 1533 1533 1533 1534 1534 1534 1535 1535 1536 1536 1536 1536 1536 1536 1536 1536 1536 1536 1536 1536 1536 1536 1536 1536 1536 1536 1536 1536 1536 1536 1536 1536 1537 1538 1538 1537 1537 1537 1536 1536 1535 1535 1534 1534 1534 1534 1534 1534 1534 1534 1534 1534 1533 1533 1533 1533 1533 1532 1532 1532 1532 1532 1531 1531 1531 1531 1531 1531 1530 1530 1530
1517 1517 1518 1519 1520 1521 1521 1521 1522 1523 1523 1524 1524 1525 1526 1526 1527 1527 1528 1528 1528 1528 1529 1529 1530 1530 1531 1531 1532 1532 1532 1533 1533 1533 1534 1534 1535 1535 1535 1536 1536 1536 1536 1536 1536 1536 1536 1536 1536 1536 1536 1536 1536 1536 1536 1536 1536 1536 1536 1536 1536 1536 1537 1536 1537 1537 1538 1537 1537 1537 1536 1536 1535 1535 1535 1535 1535 1535 1535 1534 1534 1534 1534 1534 1534 1533 1533 1533 1533 1533 1532 1532 1532 1532 1531 1531 1531 1531 1531 1531 1531 1530 1530
1517 1517 1518 1519 1520 1521 1521 1521 1522 1522 1523 1523 1524 1525 1525 1526 1527 1527 1528 1528 1528 1529 1529 1529 1530 1530 1531 1531 1532 1532 1532 1533 1533 1534 1534 1535 1535 1535 1535 1536 1536 1536 1536 1536 1536 1536 1536 1536 1536 1536 1536 1536 1536 1536 1536 1536 1536 1536 1536 1536 1536 1536 1537 1537 1537 1537 1537 1537 1537 1536 1536 1536 1535 1535 1535 1535 1535 1535 1535 1535 1535 1534 1534 1534 1534 1534 1533 1533 1533 1533 1532 1532 1532 1532 1532 1531 1531 1531 1531 1531 1531 1530 1530
1517 1517 1518 1519 1520 1520 1521 1521 1522 1522 1523 1523 1524 1525 1525 1526 1526 1527 1527 1528 1528 1529 1529 1530 1530 1530 1531 1531 1532 1532 1533 1533 1533 1534 1534 1535 1535 1535 1535 1536 1536 1536 1536 1536 1536 1536 1536 1536 1536 1536 1536 1536 1536 1536 1536 1536 1536 1536 1536 1536 1536 1536 1536 1536 1536 1537 1537 1537 1536 1536 1536 1536 1536 1535 1535 1535 1535 1535 1535 1535 1535 1535 1534 1534 1534 1534 1534 1533 1533 1533 1533 1532 1532 1532 1532 1532 1531 1531 1531 1531 1531 1531 1530
1517 1518 1518 1519 1520 1520 1521 1521 1522 1522 1523 1523 1524 1525 1525 1526 1526 1526 1527 1527 1528 1529 1529 1529 1530 1531 1531 1531 1532 1532 1533 1533 1533 1534 1534 1535 1535 1535 1535 1536 1536 1536 1536 1536 1536 1536 1536 1536 1536 1536 1536 1536 1536 1536 1536 1536 1536 1536 1536 1536 1536 1536 1536 1536 1536 1536 1536 1536 1536 1536 1536 1536 1536 1536 1535 1535 1535 1535 1535 1535 1535 1535 1535 1534 1534 1534 1534 1534 1533 1533 1533 1533 1532 1532 1532 1532 1531 1531 1531 1531 1531 1531 1530
1517 1518 1518 1519 1520 1520 1521 1521 1522 1522 1523 1523 1524 1524 1525 1526 1526 1526 1527 1527 1528 1528 1529 1529 1530 1531 1531 1531 1532 1532 1533 1533 1533 1534 1534 1535 1535 1535 1535 1535 1535 1536 1536 1536 1536 1536 1536 1536 1536 1536 1536 1536 1536 1536 1536 1536 1536 1536 1536 1536 1536 1536 1536 1536 1536 1536 1536 1536 1536 1536 1536 1536 1536 1536 1536 1535 1535 1535 1535 1535 1535 1535 1535 1535 1534 1534 1534 1534 1534 1533 1533 1533 1533 1532 1532 1532 1532 1531 1531 1531 1531 1531 1531
1517 1518 1518 1519 1519 1520 1521 1521 1522 1522 1523 1523 1524 1524 1525 1525 1526 1526 1527 1527 1528 1528 1529 1529 1530 1531 1531 1531 1532 1532 1533 1533 1533 1534 1534 1535 1535 1535 1535 1535 1535 1535 1535 1536 1536 1536 1536 1536 1536 1536 1536 1536 1535 1535 1536 1536 1536 1536 1536 1536 1536 1536 1536 1536 1536 1536 1536 1536 1536 1536 1536 1536 1536 1536 1536 1536 1535 1535 1535 1535 1535 1535 1535 1535 1534 1534 1534 1534 1534 1534 1533 1533 1533 1533 1532 1532 1532 1531 1531 1531 1531 1531 1531
1517 1517 1518 1518 1519 1520 1520 1521 1521 1522 1523 1523 1524 1524 1525 1525 1526 1526 1527 1527 1527 1528 1529 1529 1530 1531 1531 1531 1532 1532 1532 1533 1533 1534 1534 1535 1535 1535 1535 1535 1535 1535 1535 1535 1535 1535 1535 1535 1535 1535 1535 1535 1535 1535 1535 1536 1536 1536 1536 1536 1536 1536 1536 1536 1536 1536 1536 1536 1536 1536 1536 1536 1536 1536 1536 1536 1535 1535 1535 1535 1535 1535 1535 1535 1535 1534 1534 1534 1534 1534 1533 1533 1533 1533 1532 1532 1532 1531 1531 1531 1531 1531 1530
1516 1517 1518 1518 1519 1520 1520 1521 1521 1522 1523 1523 1524 1525 1525 1526 1526 1526 1527 1527 1528 1528 1529 1530 1530 1530 1531 1531 1532 1532 1532 1533 1533 1534 1534 1534 1535 1535 1535 1535 1535 1535 1535 1535 1535 1535 1535 1535 1535 1535 1535 1535 1535 1535 1535 1536 1536 1536 1536 1536 1536 1536 1536 1536 1536 1536 1536 1536 1536 1536 1536 1536 1536 1536 1536 1536 1535 1535 1535 1535 1535 1535 1535 1535 1535 1534 1534 1534 1534 1534 1533 1533 1533 1533 1532 1532 1532 1531 1531 1531 1531 1531 1530
1516 1517 1518 1518 1519 1520 1521 1521 1522 1522 1523 1524 1524 1525 1525 1526 1526 1526 1527 1527 1528 1529 1529 1530 1530 1531 1531 1531 1532 1532 1533 1533 1533 1534 1534 1534 1535 1535 1535 1535 1535 1535 1535 1535 1535 1535 1535 1535 1535 1535 1535 1535 1535 1535 1535 1535 1536 1536 1536 1536 1536 1536 1536 1536 1536 1536 1536 1536 1536 1536 1535 1535 1536 1536 1536 1535 1535 1535 1535 1535 1535 1535 1535 1535 1535 1534 1534 1534 1534 1534 1533 1533 1533 1532 1532 1532 1532 1531 1531 1531 1531 1530 1530
1516 1517 1518 1519 1519 1520 1521 1521 1522 1523 1523 1524 1524 1525 1525 1526 1526 1527 1527 1528 1528 1529 1529 1530 1530 1531 1531 1531 1532 1532 1533 1533 1534 1534 1534 1534 1535 1535 1535 1535 1535 1535 1535 1535 1535 1535 1535 1535 1535 1535 1535 1535 1535 1535 1535 1535 1535 1535 1535 1536 1536 1536 1536 1536 1536 1536 1536 1536 1536 1536 1535 1535 1535 1535 1535 1535 1535 1535 1535 1535 1535 1535 1535 1535 1534 1534 1534 1534 1534 1534 1533 1533 1533 1532 1532 1532 1531 1531 1531 1531 1530 1530 1530
1516 1517 1518 1519 1520 1520 1521 1521 1522 1523 1523 1524 1524 1525 1526 1526 1526 1527 1527 1528 1528 1529 1529 1530 1530 1531 1531 1532 1532 1533 1533 1533 1534 1534 1534 1534 1534 1535 1535 1535 1535 1535 1535 1535 1535 1535 1535 1535 1535 1535 1535 1535 1535 1535 1535 1535 1535 1535 1535 1535 1535 1535 1535 1535 1535 1535 1535 1535 1535 1535 1535 1535 1535 1535 1535 1535 1535 1535 1535 1535 1535 1535 1534 1534 1534 1534 1534 1534 1534 1533 1533 1533 1533 1532 1532 1532 1531 1531 1531 1531 1530 1530 1530
1516 1517 1518 1519 1520 1521 1521 1522 1522 1523 1523 1524 1525 1525 1526 1526 1526 1527 1527 1528 1529 1529 1530 1530 1531 1531 1531 1532 1532 1533 1533 1533 1534 1534 1534 1534 1534 1535 1535 1535 1535 1535 1535 1535 1535 1535 1535 1535 1535 1535 1535 1535 1535 1535 1535 1535 1535 1535 1535 1535 1535 1535 1535 1535 1535 1535 1535 1535 1535 1535 1535 1535 1535 1535 1535 1535 1535 1535 1535 1534 1534 1534 1534 1534 1534 1534 1534 1534 1533 1533 1533 1533 1532 1532 1532 1531 1531 1531 1531 1530 1530 1530 1529
1516 1517 1518 1519 1520 1521 1521 1522 1522 1523 1524 1524 1525 1525 1526 1526 1527 1527 1528 1528 1529 1529 1530 1530 1531 1531 1532 1532 1533 1533 1533 1533 1534 1534 1534 1534 1534 1534 1535 1535 1535 1535 1534 1534 1534 1534 1535 1535 1535 1535 1535 1535 1535 1535 1535 1535 1535 1535 1535 1535 1535 1535 1535 1535 1535 1535 1535 1535 1535 1535 1535 1535 1535 1535 1535 1535 1535 1535 1534 1534 1534 1534 1534 1534 1534 1534 1533 1533 1533 1533 1533 1532 1532 1532 1531 1531 1531 1531 1530 1530 1530 1529 1529
1516 1517 1518 1519 1520 1521 1521 1522 1522 1523 1524 1524 1525 1525 1526 1526 1527 1527 1528 1529 1529 1530 1530 1531 1531 1531 1532 1532 1533 1533 1533 1533 1534 1534 1534 1534 1534 1534 1534 1534 1534 1534 1534 1534 1534 1534 1534 1534 1534 1535 1535 1535 1535 1535 1535 1535 1535 1535 1535 1535 1535 1535 1535 1535 1535 1535 1535 1535 1535 1535 1535 1535 1535 1535 1535 1535 1535 1534 1534 1534 1534 1534 1534 1534 1534 1534 1533 1533 1533 1533 1532 1532 1532 1531 1531 1531 1531 1530 1530 1530 1529 1529 1528
1516 1517 1518 1519 1520 1521 1521 1522 1522 1523 1524 1524 1525 1526 1526 1527 1527 1528 1528 1529 1529 1530 1530 1531 1531 1531 1532 1532 1533 1533 1533 1533 1534 1534 1534 1534 1534 1534 1534 1534 1534 1534 1534 1534 1534 1534 1534 1534 1534 1534 1534 1534 1535 1535 1535 1535 1535 1535 1535 1535 1535 1535 1535 1535 1535 1535 1535 1535 1535 1535 1535 1534 1535 1535 1535 1535 1534 1534 1534 1534 1534 1534 1534 1534 1534 1533 1533 1533 1532 1532 1532 1532 1531 1531 1531 1531 1530 1530 1529 1529 1529 1528 1528
1517 1518 1519 1519 1520 1521 1521 1522 1523 1523 1524 1525 1525 1526 1526 1527 1527 1528 1528 1529 1529 1530 1530 1531 1531 1531 1532 1532 1532 1533 1533 1533 1533 1534 1534 1534 1534 1534 1534 1534 1534 1534 1534 1534 1534 1534 1534 1534 1534 1534 1534 1534 1534 1534 1534 1534 1534 1534 1534 1534 1534 1534 1534 1534 1534 1534 1534 1535 1534 1534 1534 1534 1534 1535 1534 1534 1534 1534 1534 1534 1534 1534 1534 1534 1533 1533 1533 1533 1532 1532 1531 1531 1531 1531 1531 1530 1530 1529 1529 1529 1528 1528 1527
1517 1518 1519 1520 1520 1521 1521 1522 1523 1523 1524 1525 1525 1526 1526 1527 1527 1528 1528 1529 1529 1530 1530 1531 1531 1531 1532 1532 1532 1533 1533 1533 1533 1534 1534 1534 1534 1534 1534 1534 1534 1534 1534 1534 1534 1534 1534 1534 1534 1534 1534 1534 1534 1534 1534 1534 1534 1534 1534 1534 1534 1534 1534 1534 1534 1534 1534 1534 1534 1534 1534 1534 1534 1534 1534 1534 1534 1534 1534 1534 1534 1534 1533 1533 1533 1533 1533 1532 1532 1531 1531 1531 1531 1530 1530 1530 1529 1529 1528 1528 1528 1527 1527
1517 1518 1519 1520 1520 1521 1521 1522 1523 1523 1524 1525 1525 1526 1526 1527 1528 1528 1529 1529 1530 1530 1530 1531 1531 1531 1532 1532 1532 1533 1533 1533 1533 1533 1534 1534 1534 1534 1534 1534 1534 1534 1534 1534 1534 1534 1534 1534 1534 1534 1534 1534 1534 1534 1534 1534 1534 1534 1534 1534 1534 1534 1534 1534 1534 1534 1534 1534 1534 1534 1534 1534 1534 1534 1534 1534 1534 1534 1534 1533 1533 1533 1533 1533 1533 1533 1532 1532 1532 1531 1531 1531 1530 1530 1529 1529 1528 1528 1528 1527 1527 1526 1526
1517 1518 1519 1520 1521 1521 1521 1522 1523 1524 1524 1525 1526 1526 1527 1527 1528 1528 1529 1529 1530 1530 1531 1531 1531 1531 1532 1532 1532 1533 1533 1533 1533 1533 1533 1534 1534 1534 1534 1534 1534 1534 1534 1534 1534 1534 1534 1534 1534 1534 1534 1534 1534 1534 1534 1534 1534 1534 1534 1534 1534 1534 1534 1534 1534 1534 1534 1534 1534 1534 1534 1534 1534 1533 1533 1533 1533 1533 1533 1533 1533 1533 1533 1533 1532 1532 1532 1531 1531 1531 1531 1530 1530 1529 1529 1528 1528 1527 1527 1526 1526 1526 1525
1517 1518 1519 1520 1521 1521 1522 1522 1523 1524 1524 1525 1526 1526 1527 1527 1528 1528 1529 1529 1530 1530 1531 1531 1531 1532 1532 1532 1532 1533 1533 1533 1533 1533 1533 1533 1533 1533 1533 1534 1534 1534 1534 1533 1533 1533 1533 1534 1534 1534 1534 1534 1534 1534 1534 1534 1534 1534 1534 1534 1534 1534 1534 1534 1534 1534 1534 1534 1534 1534 1534 1533 1533 1533 1533 1533 1533 1533 1533 1533 1533 1533 1532 1532 1532 1532 1531 1531 1531 1531 1530 1530 1529 1529 1528 1528 1527 1527 1526 1526 1525 1525 1524
1517 1518 1519 1520 1521 1521 1522 1522 1523 1524 1524 1525 1526 1526 1527 1527 1528 1528 1529 1530 1530 1531 1531 1531 1531 1532 1532 1532 1532 1533 1533 1533 1533 1533 1533 1533 1533 1533 1533 1534 1534 1534 1533 1533 1533 1533 1533 1533 1533 1534 1534 1534 1534 1534 1534 1534 1534 1534 1534 1533 1533 1533 1533 1533 1533 1533 1533 1533 1533 1533 1533 1533 1533 1533 1533 1533 1533 1533 1532 1532 1532 1532 1532 1532 1531 1531 1531 1531 1531 1530 1530 1529 1529 1528 1528 1527 1527 1526 1526 1525 1525 1524 1524
1517 1518 1519 1520 1521 1521 1522 1522 1523 1524 1524 1525 1526 1526 1527 1527 1528 1529 1529 1530 1530 1531 1531 1531 1531 1532 1532 1532 1532 1532 1533 1533 1533 1533 1533 1533 1533 1533 1533 1534 1534 1533 1533 1533 1533 1533 1533 1533 1533 1533 1534 1534 1534 1534 1534 1534 1534 1533 1533 1533 1533 1533 1533 1533 1533 1533 1533 1533 1533 1533 1533 1533 1533 1533 1533 1533 1532 1532 1532 1532 1532 1531 1531 1531 1531 1531 1530 1530 1530 1529 1529 1529 1528 1528 1527 1526 1526 1526 1525 1524 1524 1523 1523
1517 1518 1519 1520 1521 1521 1522 1522 1523 1524 1524 1525 1526 1526 1527 1527 1528 1529 1529 1530 1530 1531 1531 1531 1531 1531 1532 1532 1532 1532 1533 1533 1533 1533 1533 1533 1533 1533 1533 1533 1533 1533 1533 1533 1533 1533 1533 1533 1533 1533 1533 1533 1534 1534 1534 1534 1533 1533 1533 1533 1533 1533 1533 1533 1533 1533 1533 1533 1533 1533 1533 1533 1533 1533 1532 1532 1532 1532 1532 1532 1531 1531 1531 1531 1530 1530 1530 1529 1529 1529 1528 1528 1527 1527 1526 1526 1525 1525 1524 1523 1523 1522 1522
1517 1518 1519 1520 1520 1521 1522 1522 1523 1524 1524 1525 1526 1526 1527 1527 1528 1529 1529 1530 1530 1531 1531 1531 1531 1531 1532 1532 1532 1532 1532 1532 1533 1533 1533 1533 1533 1533 1533 1533 1533 1533 1533 1533 1533 1533 1533 1533 1533 1533 1533 1533 1533 1533 1533 1533 1533 1533 1533 1533 1533 1533 1533 1532 1532 1532 1533 1533 1533 1533 1533 1533 1532 1532 1532 1532 1532 1532 1531 1531 1531 1531 1531 1530 1530 1530 1529 1529 1528 1528 1527 1527 1526 1526 1526 1525 1524 1524 1523 1522 1522 1521 1521
1517 1518 1519 1519 1520 1521 1521 1522 1523 1524 1524 1525 1526 1526 1527 1527 1528 1529 1529 1530 1530 1531 1531 1531 1531 1531 1532 1532 1532 1532 1532 1532 1532 1533 1533 1533 1533 1533 1533 1533 1533 1533 1533 1533 1533 1533 1533 1533 1533 1533 1533 1533 1533 1533 1533 1533 1533 1533 1533 1533 1533 1532 1532 1532 1532 1532 1532 1532 1532 1532 1532 1532 1532 1532 1532 1532 1531 1531 1531 1531 1531 1530 1530 1530 1529 1529 1528 1528 1528 1527 1526 1526 1526 1525 1524 1524 1523 1522 1522 1521 1521 1520 1519
1516 1517 1518 1519 1520 1521 1521 1522 1523 1523 1524 1525 1526 1526 1527 1527 1528 1529 1529 1530 1530 1531 1531 1531 1531 1531 1531 1532 1532 1532 1532 1532 1532 1533 1533 1533 1533 1533 1533 1533 1533 1533 1533 1533 1533 1533 1533 1533 1533 1533 1533 1533 1533 1533 1533 1533 1533 1533 1533 1533 1532 1532 1532 1532 1532 1532 1532 1532 1532 1532 1532 1532 1532 1532 1531 1531 1531 1531 1531 1530 1530 1530 1529 1529 1528 1528 1527 1527 1526 1526 1526 1525 1524 1524 1523 1522 1522 1521 1521 1520 1519 1519 1518
1516 1517 1518 1519 1520 1521 1521 1522 1522 1523 1524 1525 1525 1526 1527 1527 1528 1528 1529 1529 1530 1530 1531 1531 1531 1531 1531 1532 1532 1532 1532 1532 1532 1533 1533 1533 1533 1533 1533 1533 1533 1533 1533 1533 1532 1532 1532 1532 1532 1532 1533 1533 1533 1533 1533 1533 1533 1533 1532 1532 1532 1532 1532 1532 1532 1532 1532 1532 1532 1532 1532 1531 1531 1531 1531 1531 1531 1530 1530 1530 1529 1529 1528 1528 1527 1527 1526 1526 1525 1525 1524 1523 1523 1522 1521 1521 1520 1520 1519 1518 1518 1517 1516
1516 1517 1518 1519 1520 1520 1521 1521 1522 1523 1524 1524 1525 1526 1526 1527 1528 1528 1529 1529 1530 1530 1531 1531 1531 1531 1531 1531 1532 1532 1532 1532 1532 1533 1533 1533 1533 1533 1533 1533 1533 1533 1532 1532 1532 1532 1532 1532 1532 1532 1532 1532 1533 1533 1533 1533 1533 1532 1532 1532 1532 1532 1532 1532 1532 1532 1531 1531 1531 1531 1531 1531 1531 1531 1531 1530 1530 1530 1529 1529 1528 1528 1527 1527 1526 1526 1525 1524 1524 1523 1522 1522 1521 1521 1520 1520 1519 1518 1518 1517 1516 1516 1515
1516 1517 1518 1519 1519 1520 1521 1521 1522 1523 1523 1524 1525 1526 1526 1527 1527 1528 1528 1529 1530 1530 1530 1531 1531 1531 1531 1531 1532 1532 1532 1532 1533 1533 1533 1533 1533 1533 1533 1532 1532 1532 1532 1532 1532 1532 1532 1532 1532 1532 1532 1532 1532 1532 1532 1532 1532 1532 1532 1532 1532 1532 1532 1531 1531 1531 1531 1531 1531 1531 1531 1531 1531 1530 1530 1530 1529 1529 1528 1528 1527 1527 1526 1525 1525 1524 1523 1523 1522 1521 1521 1520 1520 1519 1519 1518 1517 1517 1516 1516 1515 1514 1513
1516 1516 1517 1518 1519 1519 1520 1521 1522 1522 1523 1524 1525 1525 1526 1526 1527 1527 1528 1529 1529 1530 1530 1531 1531 1531 1531 1531 1532 1532 1532 1532 1532 1533 1533 1533 1533 1532 1532 1532 1532 1532 1532 1532 1531 1531 1531 1531 1531 1531 1531 1532 1532 1532 1532 1532 1532 1532 1532 1532 1531 1531 1531 1531 1531 1531 1531 1531 1531 1531 1531 1530 1530 1530 1529 1529 1528 1528 1527 1526 1526 1525 1524 1524 1523 1522 1522 1521 1521 1520 1520 1519 1519 1518 1517 1517 1516 1516 1515 1514 1514 1513 1512
1515 1516 1517 1517 1518 1519 1520 1521 1521 1522 1523 1524 1524 1525 1526 1526 1527 1527 1528 1529 1529 1530 1530 1530 1531 1531 1531 1531 1532 1532 1532 1532 1532 1532 1532 1532 1532 1532 1532 1532 1532 1532 1531 1531 1531 1531 1531 1531 1531 1531 1531 1531 1531 1531 1531 1532 1532 1531 1531 1531 1531 1531 1531 1531 1531 1531 1531 1531 1530 1530 1530 1529 1529 1528 1528 1527 1526 1526 1525 1525 1524 1524 1523 1522 1522 1521 1521 1521 1520 1520 1519 1518 1518 1517 1517 1516 1516 1515 1514 1513 1512 1512 1511
1515 1516 1516 1517 1518 1519 1519 1520 1521 1522 1522 1523 1524 1525 1525 1526 1526 1527 1528 1528 1529 1530 1530 1530 1530 1531 1531 1531 1532 1532 1532 1532 1532 1532 1532 1532 1532 1532 1532 1531 1531 1531 1531 1531 1531 1531 1531 1531 1531 1531 1531 1531 1531 1531 1531 1531 1531 1531 1531 1531 1531 1531 1531 1530 1530 1530 1530 1530 1530 1529 1529 1528 1528 1527 1526 1526 1525 1524 1524 1524 1523 1523 1522 1522 1522 1521 1521 1520 1520 1519 1518 1518 1517 1516 1516 1515 1515 1514 1513 1512 1511 1511 1510
1514 1515 1516 1517 1517 1518 1519 1520 1521 1521 1522 1523 1524 1524 1525 1526 1526 1527 1528 1528 1529 1529 1530 1530 1530 1531 1531 1531 1532 1532 1532 1532 1532 1532 1532 1532 1532 1532 1531 1531 1531 1531 1531 1531 1531 1530 1530 1530 1530 1530 1530 1530 1531 1531 1531 1531 1531 1531 1531 1531 1531 1530 1530 1530 1530 1530 1529 1529 1529 1528 1527 1527 1526 1526 1525 1524 1524 1524 1523 1523 1523 1523 1522 1522 1521 1521 1520 1520 1519 1518 1518 1517 1516 1516 1515 1514 1513 1512 1512 1511 1510 1509 1508
1514 1515 1516 1516 1517 1518 1519 1519 1520 1521 1522 1523 1523 1524 1525 1526 1526 1527 1528 1528 1529 1529 1530 1530 1530 1531 1531 1531 1531 1532 1532 1532 1532 1532 1531 1531 1531 1531 1531 1531 1531 1531 1531 1531 1530 1530 1530 1530 1530 1530 1530 1530 1530 1530 1531 1531 1531 1531 1531 1530 1530 1530 1530 1530 1529 1529 1529 1528 1528 1527 1526 1526 1525 1525 1524 1524 1524 1524 1523 1523 1523 1522 1522 1521 1521 1520 1519 1519 1518 1517 1516 1516 1515 1514 1513 1512 1512 1511 1510 1509 1508 1507 1506
1513 1514 1515 1516 1517 1517 1518 1519 1520 1521 1521 1522 1523 1524 1525 1526 1526 1527 1527 1528 1528 1529 1529 1530 1530 1530 1531 1531 1531 1531 1531 1532 1531 1531 1531 1531 1531 1531 1531 1531 1531 1531 1531 1530 1530 1530 1530 1530 1530 1530 1530 1530 1530 1530 1530 1530 1531 1531 1530 1530 1530 1530 1530 1529 1529 1529 1528 1527 1527 1526 1526 1525 1525 1524 1524 1524 1524 1523 1523 1522 1522 1521 1521 1520 1519 1519 1518 1517 1516 1516 1515 1514 1513 1512 1511 1511 1510 1509 1508 1507 1506 1506 1505
1512 1513 1514 1515 1516 1517 1518 1519 1520 1521 1521 1522 1523 1524 1525 1525 1526 1526 1527 1527 1528 1528 1529 1529 1530 1530 1531 1531 1531 1531 1531 1531 1531 1531 1531 1531 1531 1531 1530 1530 1530 1530 1531 1530 1530 1530 1530 1530 1530 1530 1530 1530 1530 1530 1530 1530 1530 1530 1530 1530 1530 1530 1530 1529 1529 1528 1527 1526 1526 1526 1525 1525 1525 1524 1524 1523 1523 1522 1522 1521 1521 1520 1519 1518 1518 1517 1516 1516 1515 1514 1513 1512 1512 1511 1510 1509 1508 1507 1506 1506 1505 1504 1503
1512 1513 1514 1515 1516 1517 1518 1519 1519 1520 1521 1522 1523 1523 1524 1525 1525 1526 1526 1527 1528 1528 1529 1529 1530 1530 1530 1531 1531 1531 1531 1531 1531 1531 1531 1531 1531 1531 1531 1530 1530 1530 1530 1530 1531 1531 1531 1531 1531 1530 1530 1530 1530 1530 1530 1530 1531 1530 1530 1530 1530 1530 1529 1529 1528 1527 1526 1526 1526 1525 1525 1525 1524 1523 1523 1522 1521 1521 1521 1520 1519 1519 1518 1517 1516 1516 1515 1514 1513 1513 1512 1511 1510 1509 1508 1507 1506 1506 1505 1504 1503 1502 1501
1511 1512 1513 1515 1516 1516 1517 1518 1519 1520 1521 1521 1522 1523 1524 1524 1525 1526 1526 1527 1527 1528 1528 1529 1529 1530 1530 1530 1531 1531 1531 1531 1531 1531 1531 1531 1531 1531 1531 1531 1530 1530 1530 1530 1531 1531 1531 1531 1531 1530 1530 1530 1530 1530 1531 1531 1531 1531 1530 1530 1530 1529 1529 1528 1527 1526 1526 1526 1526 1525 1524 1524 1523 1522 1522 1521 1521 1520 1519 1519 1518 1517 1517 1516 1515 1514 1514 1513 1512 1511 1510 1510 1509 1508 1507 1506 1505 1504 1503 1502 1501 1500 1500
1511 1512 1513 1514 1515 1516 1517 1518 1518 1519 1520 1521 1522 1523 1523 1524 1525 1525 1526 1526 1527 1527 1528 1529 1529 1529 1530 1530 1530 1531 1531 1531 1531 1531 1531 1531 1531 1531 1531 1531 1531 1531 1531 1531 1531 1531 1531 1531 1531 1531 1531 1531 1531 1531 1531 1531 1531 1530 1530 1530 1530 1529 1528 1527 1527 1526 1526 1526 1525 1524 1524 1523 1522 1521 1521 1520 1519 1519 1518 1518 1517 1516 1516 1515 1514 1513 1512 1511 1511 1510 1509 1508 1507 1506 1505 1504 1503 1502 1501 1501 1500 1499 1498
1510 1511 1512 1513 1514 1515 1516 1517 1518 1519 1520 1521 1521 1522 1523 1524 1524 1525 1526 1526 1527 1527 1528 1528 1529 1529 1529 1530 1530 1530 1531 1531 1531 1531 1531 1531 1531 1531 1531 1531 1531 1531 1531 1531 1531 1531 1531 1531 1531 1531 1531 1531 1531 1531 1531 1530 1530 1530 1530 1530 1529 1529 1528 1527 1527 1526 1526 1525 1524 1524 1523 1522 1521 1521 1520 1519 1518 1518 1517 1517 1516 1515 1514 1514 1513 1512 1511 1510 1509 1508 1507 1506 1505 1504 1503 1502 1501 1501 1500 1499 1498 1497 1496
1509 1510 1511 1513 1514 1515 1516 1517 1517 1518 1519 1520 1521 1522 1522 1523 1524 1525 1525 1526 1526 1527 1527 1528 1528 1529 1529 1529 1530 1530 1530 1530 1531 1531 1531 1531 1531 1531 1531 1531 1531 1531 1531 1531 1531 1531 1531 1531 1530 1530 1531 1530 1530 1530 1530 1530 1530 1530 1530 1530 1529 1528 1527 1527 1526 1526 1525 1524 1524 1523 1522 1521 1521 1520 1519 1518 1517 1517 1516 1516 1515 1514 1513 1512 1511 1510 1509 1508 1507 1506 1505 1504 1503 1502 1502 1501 1500 1499 1498 1497 1496 1496 1495
1509 1510 1511 1512 1513 1514 1515 1516 1517 1518 1519 1520 1521 1521 1522 1523 1523 1524 1525 1525 1526 1526 1527 1527 1528 1528 1529 1529 1529 1530 1530 1530 1530 1530 1531 1531 1531 1531 1531 1531 1531 1531 1531 1531 1531 1531 1531 1531 1531 1530 1530 1530 1530 1530 1530 1530 1530 1530 1530 1529 1528 1528 1527 1526 1526 1525 1525 1524 1523 1522 1521 1521 1520 1519 1518 1517 1516 1516 1515 1514 1513 1512 1511 1511 1510 1508 1507 1506 1506 1504 1503 1502 1501 1501 1500 1499 1498 1497 1496 1496 1495 1494 1493
1508 1509 1510 1511 1512 1513 1515 1516 1516 1517 1518 1519 1520 1521 1521 1522 1523 1523 1524 1525 1525 1526 1527 1527 1527 1528 1528 1529 1529 1529 1529 1530 1530 1530 1530 1530 1531 1531 1531 1531 1531 1531 1531 1531 1531 1531 1531 1531 1531 1531 1530 1529 1529 1530 1530 1530 1530 1530 1529 1529 1528 1527 1526 1526 1525 1525 1524 1523 1522 1521 1520 1520 1519 1518 1517 1516 1515 1515 1514 1513 1512 1511 1510 1509 1508 1507 1506 1505 1504 1503 1502 1501 1500 1499 1498 1497 1496 1496 1495 1494 1493 1492 1491
1507 1508 1509 1511 1512 1513 1514 1515 1516 1517 1518 1518 1519 1520 1521 1521 1522 1523 1524 1524 1525 1526 1526 1526 1527 1527 1528 1528 1529 1529 1529 1529 1530 1530 1530 1530 1530 1531 1531 1531 1531 1531 1531 1531 1531 1531 1531 1531 1531 1531 1530 1529 1528 1528 1529 1529 1529 1529 1529 1528 1527 1526 1526 1525 1525 1524 1523 1522 1521 1520 1520 1518 1517 1517 1516 1515 1514 1513 1512 1511 1511 1510 1509 1507 1506 1506 1505 1504 1503 1502 1501 1500 1499 1498 1496 1496 1495 1494 1493 1492 1491 1491 1490
1506 1508 1509 1510 1511 1512 1513 1514 1515 1516 1517 1518 1519 1519 1520 1521 1522 1523 1523 1524 1525 1525 1526 1526 1526 1527 1528 1528 1528 1528 1529 1529 1529 1530 1530 1530 1530 1530 1530 1530 1531 1531 1531 1531 1531 1531 1531 1531 1531 1531 1531 1530 1528 1527 1527 1528 1529 1529 1529 1528 1527 1526 1525 1524 1524 1523 1522 1521 1520 1519 1518 1517 1516 1516 1515 1514 1513 1512 1511 1510 1509 1508 1507 1506 1505 1504 1503 1502 1501 1501 1500 1499 1497 1496 1495 1494 1493 1492 1491 1491 1490 1489 1488
1506 1507 1508 1509 1510 1511 1512 1513 1514 1515 1516 1517 1518 1519 1520 1521 1521 1522 1523 1523 1524 1525 1525 1526 1526 1526 1527 1527 1528 1528 1528 1529 1529 1529 1529 1530 1530 1530 1530 1530 1530 1531 1531 1531 1531 1531 1531 1531 1531 1531 1531 1530 1529 1528 1526 1526 1527 1528 1528 1528 1527 1526 1524 1523 1523 1522 1521 1520 1519 1518 1517 1516 1515 1514 1513 1512 1512 1511 1510 1509 1508 1507 1506 1505 1504 1503 1502 1501 1500 1499 1498 1497 1496 1495 1494 1492 1491 1490 1489 1489 1488 1487 1486